Time,TemperatureF,DewpointF,PressureIn,WindDirection,WindDirectionDegrees,WindSpeedMPH,WindSpeedGustMPH,Humidity,HourlyPrecipIn,Conditions,Clouds,dailyrainin,SoftwareType,DateUTC
2013-01-11 00:08:00,30.7,30.2,30.49,SSW,202,0.0,-999.0,98,-99.99,,,0.00,Acu-Link.com,2013-01-11 05:08:00,
2013-01-11 00:23:00,30.7,30.2,30.50,SW,225,0.0,-999.0,98,-99.99,,,0.00,Acu-Link.com,2013-01-11 05:23:00,
2013-01-11 00:38:00,30.7,30.2,30.50,SW,225,0.0,-999.0,98,-99.99,,,0.00,Acu-Link.com,2013-01-11 05:38:00,
2013-01-11 00:54:00,30.7,30.2,30.49,SW,225,0.0,-999.0,98,-99.99,,,0.00,Acu-Link.com,2013-01-11 05:54:00,
2013-01-11 01:09:00,30.4,29.9,30.49,SW,225,0.0,-999.0,98,-99.99,,,0.00,Acu-Link.com,2013-01-11 06:09:00,
2013-01-11 01:24:00,30.2,29.7,30.49,SSW,202,0.0,-999.0,98,-99.99,,,0.00,Acu-Link.com,2013-01-11 06:24:00,
2013-01-11 01:39:00,30.4,29.9,30.48,SSW,202,0.0,-999.0,98,-99.99,,,0.00,Acu-Link.com,2013-01-11 06:39:00,
2013-01-11 01:54:00,30.2,29.7,30.47,SSW,202,0.0,-999.0,98,-99.99,,,0.00,Acu-Link.com,2013-01-11 06:54:00,
2013-01-11 02:09:00,30.2,29.7,30.47,SSW,202,0.0,-999.0,98,-99.99,,,0.00,Acu-Link.com,2013-01-11 07:09:00,
2013-01-11 02:25:00,29.8,29.3,30.47,SSW,202,0.0,-999.0,98,-99.99,,,0.00,Acu-Link.com,2013-01-11 07:25:00,
2013-01-11 02:40:00,29.5,29.0,30.47,SSW,202,0.0,-999.0,98,-99.99,,,0.00,Acu-Link.com,2013-01-11 07:40:00,
2013-01-11 02:55:00,29.1,28.6,30.47,SSW,202,0.0,-999.0,98,-99.99,,,0.00,Acu-Link.com,2013-01-11 07:55:00,
2013-01-11 03:10:00,28.9,28.4,30.46,SSW,202,0.0,-999.0,98,-99.99,,,0.00,Acu-Link.com,2013-01-11 08:10:00,
2013-01-11 03:25:00,28.8,28.3,30.47,SSW,202,0.0,-999.0,98,-99.99,,,0.00,Acu-Link.com,2013-01-11 08:25:00,
2013-01-11 03:41:00,28.6,28.1,30.44,SSW,202,0.0,-999.0,98,-99.99,,,0.00,Acu-Link.com,2013-01-11 08:41:00,
2013-01-11 03:56:00,28.8,28.3,30.44,SSW,202,0.0,-999.0,98,-99.99,,,0.00,Acu-Link.com,2013-01-11 08:56:00,
2013-01-11 04:11:00,28.8,28.3,30.44,SSW,202,0.0,-999.0,98,-99.99,,,0.00,Acu-Link.com,2013-01-11 09:11:00,
2013-01-11 04:26:00,28.6,28.1,30.43,SSW,202,0.0,-999.0,98,-99.99,,,0.00,Acu-Link.com,2013-01-11 09:26:00,
2013-01-11 04:41:00,28.4,27.9,30.42,SSW,202,0.0,-999.0,98,-99.99,,,0.00,Acu-Link.com,2013-01-11 09:41:00,
2013-01-11 04:57:00,28.4,27.9,30.43,SSW,202,0.0,-999.0,98,-99.99,,,0.00,Acu-Link.com,2013-01-11 09:57:00,
2013-01-11 05:12:00,28.9,28.4,30.42,SSW,202,0.0,-999.0,98,-99.99,,,0.00,Acu-Link.com,2013-01-11 10:12:00,
2013-01-11 05:27:00,29.3,28.8,30.41,SSW,202,0.0,-999.0,98,-99.99,,,0.00,Acu-Link.com,2013-01-11 10:27:00,
2013-01-11 05:42:00,29.7,29.2,30.42,SSW,202,0.0,-999.0,98,-99.99,,,0.00,Acu-Link.com,2013-01-11 10:42:00,
2013-01-11 05:58:00,30.0,29.5,30.42,West,270,0.0,-999.0,98,-99.99,,,0.00,Acu-Link.com,2013-01-11 10:58:00,
2013-01-11 06:13:00,30.4,29.9,30.42,West,270,0.0,-999.0,98,-99.99,,,0.00,Acu-Link.com,2013-01-11 11:13:00,
2013-01-11 06:28:00,30.6,30.1,30.43,SSW,202,0.0,-999.0,98,-99.99,,,0.00,Acu-Link.com,2013-01-11 11:28:00,
2013-01-11 06:43:00,30.7,30.2,30.43,SW,225,0.0,-999.0,98,-99.99,,,0.00,Acu-Link.com,2013-01-11 11:43:00,
2013-01-11 06:58:00,30.9,30.4,30.43,South,180,0.0,-999.0,98,-99.99,,,0.00,Acu-Link.com,2013-01-11 11:58:00,
2013-01-11 07:14:00,31.1,30.6,30.43,South,180,0.0,-999.0,98,-99.99,,,0.00,Acu-Link.com,2013-01-11 12:14:00,
2013-01-11 07:29:00,31.1,30.6,30.43,South,180,0.0,-999.0,98,-99.99,,,0.00,Acu-Link.com,2013-01-11 12:29:00,
2013-01-11 07:44:00,31.3,30.8,30.43,South,180,0.0,-999.0,98,-99.99,,,0.00,Acu-Link.com,2013-01-11 12:44:00,
2013-01-11 07:59:00,31.6,31.1,30.44,South,180,0.0,-999.0,98,-99.99,,,0.00,Acu-Link.com,2013-01-11 12:59:00,
2013-01-11 08:14:00,32.4,31.9,30.43,South,180,0.0,-999.0,98,-99.99,,,0.00,Acu-Link.com,2013-01-11 13:14:00,
2013-01-11 08:30:00,32.9,32.4,30.43,South,180,0.0,-999.0,98,-99.99,,,0.00,Acu-Link.com,2013-01-11 13:30:00,
2013-01-11 08:45:00,33.8,33.3,30.41,SSW,202,0.0,-999.0,98,-99.99,,,0.00,Acu-Link.com,2013-01-11 13:45:00,
2013-01-11 09:00:00,34.5,34.0,30.42,SW,225,0.0,-999.0,98,-99.99,,,0.00,Acu-Link.com,2013-01-11 14:00:00,
2013-01-11 09:15:00,35.2,34.7,30.43,SW,225,0.0,-999.0,98,-99.99,,,0.00,Acu-Link.com,2013-01-11 14:15:00,
2013-01-11 09:30:00,36.0,35.5,30.43,South,180,0.0,-999.0,98,-99.99,,,0.00,Acu-Link.com,2013-01-11 14:30:00,
2013-01-11 09:46:00,36.7,36.2,30.42,ESE,112,0.0,-999.0,98,-99.99,,,0.00,Acu-Link.com,2013-01-11 14:46:00,
2013-01-11 10:01:00,37.2,36.7,30.42,SW,225,0.0,-999.0,98,-99.99,,,0.00,Acu-Link.com,2013-01-11 15:01:00,
2013-01-11 10:16:00,38.1,37.6,30.40,SSW,202,0.0,-999.0,98,-99.99,,,0.00,Acu-Link.com,2013-01-11 15:16:00,
2013-01-11 10:31:00,38.3,37.8,30.41,SSW,202,0.0,-999.0,98,-99.99,,,0.00,Acu-Link.com,2013-01-11 15:31:00,
2013-01-11 10:47:00,39.4,38.9,30.40,ESE,112,0.0,-999.0,98,-99.99,,,0.00,Acu-Link.com,2013-01-11 15:47:00,
2013-01-11 11:02:00,39.7,39.2,30.38,South,180,0.0,-999.0,98,-99.99,,,0.00,Acu-Link.com,2013-01-11 16:02:00,
2013-01-11 11:17:00,39.7,39.2,30.37,SE,135,0.0,-999.0,98,-99.99,,,0.00,Acu-Link.com,2013-01-11 16:17:00,
2013-01-11 11:32:00,40.8,40.3,30.36,SSE,157,0.0,-999.0,98,-99.99,,,0.00,Acu-Link.com,2013-01-11 16:32:00,
2013-01-11 11:47:00,41.4,40.6,30.34,NW,315,0.0,-999.0,97,-99.99,,,0.00,Acu-Link.com,2013-01-11 16:47:00,
2013-01-11 12:03:00,41.9,40.6,30.32,SSW,202,0.0,-999.0,95,-99.99,,,0.00,Acu-Link.com,2013-01-11 17:03:00,
2013-01-11 12:18:00,41.7,41.2,30.30,SSE,157,0.0,-999.0,98,-99.99,,,0.00,Acu-Link.com,2013-01-11 17:18:00,
2013-01-11 12:33:00,42.1,41.6,30.31,SSW,202,0.0,-999.0,98,-99.99,,,0.00,Acu-Link.com,2013-01-11 17:33:00,
2013-01-11 12:48:00,41.9,41.4,30.30,SSE,157,0.0,-999.0,98,-99.99,,,0.00,Acu-Link.com,2013-01-11 17:48:00,
2013-01-11 13:03:00,41.7,41.2,30.30,SSW,202,0.0,-999.0,98,-99.99,,,0.00,Acu-Link.com,2013-01-11 18:03:00,
2013-01-11 13:19:00,41.4,40.8,30.29,WSW,247,0.0,-999.0,98,-99.99,,,0.00,Acu-Link.com,2013-01-11 18:19:00,
2013-01-11 13:34:00,41.0,40.5,30.30,SSW,202,0.0,-999.0,98,-99.99,,,0.00,Acu-Link.com,2013-01-11 18:34:00,
2013-01-11 13:49:00,40.8,40.3,30.29,SSE,157,0.0,-999.0,98,-99.99,,,0.00,Acu-Link.com,2013-01-11 18:49:00,
2013-01-11 14:04:00,40.5,39.9,30.27,South,180,0.0,-999.0,98,-99.99,,,0.00,Acu-Link.com,2013-01-11 19:04:00,
2013-01-11 14:19:00,40.5,39.9,30.27,SSE,157,0.0,-999.0,98,-99.99,,,0.00,Acu-Link.com,2013-01-11 19:19:00,
2013-01-11 14:35:00,40.5,39.9,30.26,SSW,202,0.0,-999.0,98,-99.99,,,0.00,Acu-Link.com,2013-01-11 19:35:00,
2013-01-11 14:50:00,40.8,40.3,30.26,SSW,202,0.0,-999.0,98,-99.99,,,0.00,Acu-Link.com,2013-01-11 19:50:00,
2013-01-11 15:05:00,40.8,40.3,30.25,South,180,1.1,-999.0,98,-99.99,,,0.00,Acu-Link.com,2013-01-11 20:05:00,
2013-01-11 15:20:00,40.6,40.1,30.25,SE,135,0.0,-999.0,98,-99.99,,,0.00,Acu-Link.com,2013-01-11 20:20:00,
2013-01-11 15:36:00,40.5,39.9,30.24,SSE,157,0.0,-999.0,98,-99.99,,,0.00,Acu-Link.com,2013-01-11 20:36:00,
2013-01-11 15:51:00,40.3,39.8,30.22,South,180,0.0,-999.0,98,-99.99,,,0.00,Acu-Link.com,2013-01-11 20:51:00,
2013-01-11 16:06:00,39.9,39.4,30.23,South,180,0.0,-999.0,98,-99.99,,,0.00,Acu-Link.com,2013-01-11 21:06:00,
2013-01-11 16:21:00,39.7,39.2,30.22,South,180,0.0,-999.0,98,-99.99,,,0.00,Acu-Link.com,2013-01-11 21:21:00,
2013-01-11 16:36:00,39.6,39.0,30.21,South,180,0.0,-999.0,98,-99.99,,,0.00,Acu-Link.com,2013-01-11 21:36:00,
2013-01-11 16:52:00,39.4,38.9,30.20,SSW,202,0.0,-999.0,98,-99.99,,,0.00,Acu-Link.com,2013-01-11 21:52:00,
2013-01-11 17:07:00,39.2,38.7,30.20,South,180,0.0,-999.0,98,-99.99,,,0.04,Acu-Link.com,2013-01-11 22:07:00,
2013-01-11 17:22:00,38.8,38.3,30.20,South,180,0.0,-999.0,98,-99.99,,,0.21,Acu-Link.com,2013-01-11 22:22:00,
2013-01-11 17:37:00,38.7,38.1,30.19,SSW,202,0.0,-999.0,98,-99.99,,,0.28,Acu-Link.com,2013-01-11 22:37:00,
2013-01-11 17:52:00,38.7,38.1,30.18,SSW,202,0.0,-999.0,98,-99.99,,,0.28,Acu-Link.com,2013-01-11 22:52:00,
2013-01-11 18:08:00,38.7,38.1,30.17,SSE,157,0.0,-999.0,98,-99.99,,,0.32,Acu-Link.com,2013-01-11 23:08:00,
2013-01-11 18:23:00,38.7,38.1,30.16,South,180,0.0,-999.0,98,-99.99,,,0.43,Acu-Link.com,2013-01-11 23:23:00,
2013-01-11 18:38:00,38.7,38.1,30.15,SSE,157,0.0,-999.0,98,-99.99,,,0.50,Acu-Link.com,2013-01-11 23:38:00,
2013-01-11 18:53:00,38.7,38.1,30.14,SSW,202,0.0,-999.0,98,-99.99,,,0.78,Acu-Link.com,2013-01-11 23:53:00,
2013-01-11 19:09:00,38.7,38.1,30.14,West,270,0.0,-999.0,98,-99.99,,,0.87,Acu-Link.com,2013-01-12 00:09:00,
2013-01-11 19:24:00,38.8,38.3,30.14,SSW,202,0.0,-999.0,98,-99.99,,,1.38,Acu-Link.com,2013-01-12 00:24:00,
2013-01-11 19:39:00,38.8,38.3,30.15,SSW,202,0.0,-999.0,98,-99.99,,,1.91,Acu-Link.com,2013-01-12 00:39:00,
2013-01-11 19:54:00,39.0,38.5,30.15,SSW,202,0.0,-999.0,98,-99.99,,,2.13,Acu-Link.com,2013-01-12 00:54:00,
2013-01-11 20:09:00,39.0,38.5,30.14,South,180,0.0,-999.0,98,-99.99,,,2.34,Acu-Link.com,2013-01-12 01:09:00,
2013-01-11 20:25:00,39.0,38.5,30.14,SSW,202,0.0,-999.0,98,-99.99,,,2.34,Acu-Link.com,2013-01-12 01:25:00,
2013-01-11 20:40:00,39.2,38.7,30.13,SSW,202,0.0,-999.0,98,-99.99,,,2.34,Acu-Link.com,2013-01-12 01:40:00,
2013-01-11 20:55:00,39.2,38.7,30.12,SSW,202,0.0,-999.0,98,-99.99,,,2.34,Acu-Link.com,2013-01-12 01:55:00,
2013-01-11 21:10:00,39.2,38.7,30.12,SSW,202,0.0,-999.0,98,-99.99,,,2.37,Acu-Link.com,2013-01-12 02:10:00,
2013-01-11 21:25:00,39.2,38.7,30.12,SSW,202,0.0,-999.0,98,-99.99,,,2.48,Acu-Link.com,2013-01-12 02:25:00,
2013-01-11 21:41:00,39.2,38.7,30.11,SSW,202,0.0,-999.0,98,-99.99,,,2.52,Acu-Link.com,2013-01-12 02:41:00,
2013-01-11 21:56:00,39.2,38.7,30.10,SSW,202,0.0,-999.0,98,-99.99,,,2.52,Acu-Link.com,2013-01-12 02:56:00,
2013-01-11 22:11:00,39.2,38.7,30.10,SSW,202,0.0,-999.0,98,-99.99,,,2.52,Acu-Link.com,2013-01-12 03:11:00,
2013-01-11 22:26:00,39.4,38.9,30.10,ESE,112,0.0,-999.0,98,-99.99,,,2.55,Acu-Link.com,2013-01-12 03:26:00,
2013-01-11 22:41:00,39.6,39.0,30.08,ESE,112,0.0,-999.0,98,-99.99,,,2.55,Acu-Link.com,2013-01-12 03:41:00,
2013-01-11 22:57:00,39.9,39.4,30.08,SSW,202,0.0,-999.0,98,-99.99,,,2.55,Acu-Link.com,2013-01-12 03:57:00,
2013-01-11 23:12:00,40.3,39.8,30.09,SSE,157,0.0,-999.0,98,-99.99,,,2.55,Acu-Link.com,2013-01-12 04:12:00,
2013-01-11 23:27:00,40.5,39.9,30.06,South,180,0.0,-999.0,98,-99.99,,,2.83,Acu-Link.com,2013-01-12 04:27:00,
2013-01-11 23:42:00,40.8,40.3,30.06,SSW,202,0.0,-999.0,98,-99.99,,,2.87,Acu-Link.com,2013-01-12 04:42:00,
2013-01-11 23:58:00,41.0,40.5,30.06,NE,45,0.0,-999.0,98,-99.99,,,2.87,Acu-Link.com,2013-01-12 04:58:00,